Location: Carr Mill
(33.2054°N, 85.9439°W)
Time: 23:29:32
(UTC+00:00)

Cosmos 1892 - Pass Details

Date: 29 October 2020
Orbit: 504 x 523 km, 82.5° (Epoch: 28 November)

Event Time Altitude Azimuth Distance (km) Brightness Sun altitude
Rises 23:17:50 0° 11° (N) 2,659 6.1 -5.6°
Reaches altitude 10° 23:20:25 10° 28° (NNE) 1,766 5.0 -6.1°
Maximum altitude 23:23:21 20° 77° (ENE) 1,241 4.0 -6.7°
Drops below altitude 10° 23:26:15 10° 126° (SE) 1,755 5.0 -7.3°
Sets 23:28:48 0° 144° (SE) 2,637 6.0 -7.8°
